Regional Weather Roundup
Issued by NWS State College, PA

Home | Current Version | Previous Version | Text Only | Print | Product List | Glossary On
Versions: 1 2 3 4 5 6 7 8 9 10 11 12 13 14 15 16 17 18 19 20 21 22 23 24 25 26 27 28 29 30 31 32 33 34 35 36 37 38 39 40 41 42 43 44 45 46 47 48 49 50
000
ASUS41 KCTP 221210
RWRCTP

REGIONAL WEATHER ROUNDUP
NATIONAL WEATHER SERVICE STATE COLLEGE PA
800 AM EDT FRI MAY 22 2015

Note: "fair" indicates few or no clouds below 12,000 feet with no
significant weather and/or obstructions to visibility.

* = STATION THAT DOES NOT REPORT PRECIPITATION /E.G. RAIN...SNOW...ETC/
    THUNDER OR FOG.

PAZ002>004-007>009-013>016-020>023-029>032-221300-
WESTERN PENNSYLVANIA

CITY           SKY/WX    TMP DP  RH WIND       PRES   REMARKS
ERIE           PTSUNNY   53  35  50 NW10      30.05R
MEADVILLE      CLOUDY    47  40  76 SW7       30.05R
FRANKLIN*      CLOUDY    45  37  76 SW7       30.08R
NEW CASTLE     PTSUNNY   48  42  80 CALM      30.10R
BEAVER COUNTY  PTSUNNY   46  39  76 W5        30.08R
BUTLER*        MOSUNNY   46  39  76 W6        30.10R
PITTSBURGH INT MOSUNNY   49  40  71 SW7       30.09R
PITTSBURGH     SUNNY     49  37  63 SW7       30.09R
INDIANA*       SUNNY     45  45 100 W6        30.11S
LATROBE        SUNNY     46  45  93 SW12      30.11S
WASHINGTON CO* SUNNY     48  39  71 SW8       30.12R
$$

PAZ004>006-010>012-017>019-024>028-033>037-041-042-045-046-049>053-221300-
CENTRAL PENNSYLVANIA

CITY           SKY/WX    TMP DP  RH WIND       PRES   REMARKS
BRADFORD       PTSUNNY   47  37  68 W7        30.00R
DUBOIS         MOSUNNY   45  41  86 W10       30.03R
CLEARFIELD     MOSUNNY   46  41  82 SW7       30.04R
JOHNSTOWN      SUNNY     45  39  79 SW7       30.06R
ALTOONA        SUNNY     50  40  68 SW12      30.06R
STATE COLLEGE  SUNNY     50  41  71 W12       30.03S
WILLIAMSPORT   SUNNY     51  42  71 W13       30.00R
SELINSGROVE    SUNNY     55  43  63 W7        30.02R
FT INDIANTOWN  SUNNY     55  39  55 W13G21    30.00R
CAPITAL CITY   SUNNY     55  41  59 W10       30.02R
HARRISBURG     SUNNY     56  42  59 NW15      30.01R
YORK           SUNNY     54  42  64 W7        30.02R
$$

PAZ038>040-043-044-047-048-054-055-060>062-067>071-221300-
EASTERN PENNSYLVANIA

CITY           SKY/WX    TMP DP  RH WIND       PRES   REMARKS
SCRANTON       SUNNY     52  41  66 SW10      29.97R
MOUNT POCONO   SUNNY     47  39  74 W12       29.94R
ALLENTOWN      SUNNY     56  41  57 W8        29.96R
QUAKERTOWN*    SUNNY     54  41  62 NW5       29.97S
READING        SUNNY     56  41  57 W10       29.98S
LANCASTER      SUNNY     54  42  64 W14       30.00S
COATESVILLE    SUNNY     54  45  71 NW16      29.99S
POTTSTOWN      SUNNY     54  43  66 VRB5      29.99R
BLUE BELL      SUNNY     55  45  67 NW3       29.97R
DOYLESTOWN     SUNNY     54  41  61 W12       29.95S
WILLOW GROVE   NOT AVBL
NORTH PHILA    SUNNY     57  43  59 NW10G21   29.98R
PHILADELPHIA   SUNNY     56  43  61 W9        29.98R
$$



USA.gov is the U.S. government's official web portal to all federal, state and local government web resources and services.